Location: Spring Creek
(38.2870°N, 100.2160°W)
Time: 16:51:10
(UTC+00:00)

Cosmos 2297 Rocket - Visible Passes

Search period start: 25 September 2021 00:00
Search period end: 05 October 2021 00:00
Orbit: 840 x 842 km, 71.0° (Epoch: 24 September)

Date Brightness Start Highest point End Pass type
(mag) Time Alt. Az. Time Alt. Az. Time Alt. Az.
25 Sep 4.6 03:56:39 10° N 03:57:41 15° N 03:57:41 15° N visible
26 Sep 4.4 03:41:33 10° N 03:42:51 16° N 03:42:51 16° N visible
27 Sep 4.3 03:26:28 10° N 03:28:03 17° N 03:28:03 17° N visible
28 Sep 4.1 03:11:22 10° N 03:13:16 19° NNE 03:13:16 19° NNE visible
29 Sep 4.0 02:56:17 10° N 02:58:32 20° NNE 02:58:32 20° NNE visible
29 Sep 5.0 04:39:57 10° NW 04:40:21 12° NW 04:40:21 12° NW visible
30 Sep 3.8 02:41:12 10° N 02:43:50 21° NNE 02:43:50 21° NNE visible
30 Sep 4.8 04:24:46 10° NW 04:25:39 14° NW 04:25:39 14° NW visible
01 Oct 3.7 02:26:07 10° N 02:29:10 22° NNE 02:29:10 22° NNE visible
01 Oct 4.6 04:09:35 10° NW 04:10:59 18° NW 04:10:59 18° NW visible
02 Oct 3.6 02:11:03 10° N 02:14:34 23° NE 02:14:34 23° NE visible
02 Oct 4.3 03:54:23 10° NW 03:56:22 22° NW 03:56:22 22° NW visible
03 Oct 3.5 01:55:59 10° N 02:00:00 22° NE 02:00:00 22° NE visible
03 Oct 4.0 03:39:13 10° NNW 03:41:49 27° NW 03:41:49 27° NW visible
04 Oct 3.5 01:40:54 10° N 01:45:10 21° NE 01:45:31 21° ENE visible
04 Oct 3.6 03:24:02 10° NNW 03:27:20 34° NW 03:27:20 34° NW visible
